Clovis, NM

8:58 AM MDT on August 20, 2017 (GMT -0600)
Clovis Municipal

Weather History for KCVN - January, 2013

Change the Weather History Date:

Tuesday, January 29, 2013

  Actual Average Record
Temperature  
Mean Temperature 37 °F -  
Max Temperature 50 °F 53 °F 74 °F (1986)
Min Temperature 24 °F 24 °F -2 °F (1951)
Degree Days  
Heating Degree Days 28    
Moisture  
Dew Point 21 °F    
Average Humidity 50    
Maximum Humidity 86    
Minimum Humidity 22    
Precipitation  
Precipitation 0.00 in - - ()
Sea Level Pressure  
Sea Level Pressure 29.71 in    
Wind  
Wind Speed 20 mph (WNW)    
Max Wind Speed 36 mph    
Max Gust Speed 40 mph    
Visibility 10 miles    
Events      
Averages and records for this station are not official NWS values.
T = Trace of Precipitation, MM = Missing Value Source: NWS Daily Summary

Daily Weather History Graph

Daily Weather History Graph

Search for Another Location

Airport or City:

Trip Planner

Search our weather history database for the weather conditions in past years. The results will help you decide how hot, cold, wet, or windy it might be!

Date:

Astronomy

Jan. 29, 2013 Rise Set
Actual Time 6:51 AM MST 5:19 PM MST
Civil Twilight 6:25 AM MST 5:46 PM MST
Nautical Twilight 5:55 AM MST 6:16 PM MST
Astronomical Twilight 5:25 AM MST 6:45 PM MST
Moon 8:07 PM MST (1/29) 7:59 AM MST (1/29)
Length of Visible Light 11h 20m
Length of Day
10h 27m
Waning Gibbous, 93% of the Moon is Illuminated
Jan 29
Waning Gibbous
Feb 3
Last Quarter
Feb 10
New
Feb 17
First Quarter
Feb 25
Full

Hourly Weather History & Observations

Time (MST) Temp. Windchill Dew Point Humidity Pressure Visibility Wind Dir Wind Speed Gust Speed Precip Events Conditions
12:15 AM 50.0 °F - 30.2 °F 47% 29.75 in 10.0 mi West 23.0 mph 27.6 mph N/A   Mostly Cloudy
12:35 AM 50.0 °F - 30.2 °F 47% 29.75 in 10.0 mi West 20.7 mph 28.8 mph N/A   Mostly Cloudy
12:55 AM 50.0 °F - 30.2 °F 47% 29.75 in 10.0 mi West 18.4 mph - N/A   Overcast
1:15 AM 48.2 °F - 30.2 °F 50% 29.74 in 10.0 mi West 20.7 mph - N/A   Overcast
1:35 AM 48.2 °F - 30.2 °F 50% 29.74 in 10.0 mi West 19.6 mph 25.3 mph N/A   Overcast
1:55 AM 48.2 °F - 30.2 °F 50% 29.74 in 10.0 mi West 20.7 mph 26.5 mph N/A   Overcast
2:15 AM 48.2 °F - 28.4 °F 46% 29.74 in 10.0 mi West 21.9 mph 31.1 mph N/A   Overcast
2:35 AM 46.4 °F 38.7 °F 28.4 °F 50% 29.73 in 10.0 mi West 20.7 mph - N/A   Mostly Cloudy
2:55 AM 44.6 °F 37.4 °F 28.4 °F 53% 29.74 in 10.0 mi West 16.1 mph - N/A   Mostly Cloudy
3:15 AM 44.6 °F 39.2 °F 28.4 °F 53% 29.74 in 10.0 mi West 10.4 mph - N/A   Mostly Cloudy
3:35 AM 44.6 °F 38.4 °F 28.4 °F 53% 29.74 in 10.0 mi West 12.7 mph - N/A   Mostly Cloudy
3:55 AM 42.8 °F 37.5 °F 28.4 °F 57% 29.73 in 10.0 mi West 9.2 mph - N/A   Scattered Clouds
4:15 AM 41.0 °F 35.2 °F 28.4 °F 61% 29.73 in 10.0 mi West 9.2 mph - N/A   Partly Cloudy
4:35 AM 39.2 °F 30.8 °F 28.4 °F 65% 29.72 in 10.0 mi WNW 15.0 mph - N/A   Partly Cloudy
4:55 AM 39.2 °F 30.8 °F 28.4 °F 65% 29.73 in 10.0 mi WNW 15.0 mph - N/A   Clear
5:15 AM 37.4 °F 29.8 °F 26.6 °F 65% 29.72 in 10.0 mi WNW 11.5 mph - N/A   Clear
5:35 AM 37.4 °F 30.3 °F 26.6 °F 65% 29.72 in 10.0 mi WNW 10.4 mph - N/A   Clear
5:55 AM 35.6 °F 29.2 °F 24.8 °F 65% 29.72 in 10.0 mi WNW 8.1 mph - N/A   Partly Cloudy
6:15 AM 37.4 °F 28.5 °F 21.2 °F 52% 29.73 in 10.0 mi WNW 15.0 mph 19.6 mph N/A   Scattered Clouds
6:35 AM 37.4 °F 29.3 °F 19.4 °F 48% 29.73 in 10.0 mi West 12.7 mph - N/A   Scattered Clouds
6:55 AM 37.4 °F 27.8 °F 19.4 °F 48% 29.71 in 10.0 mi WNW 17.3 mph - N/A   Clear
7:15 AM 37.4 °F 26.9 °F 19.4 °F 48% 29.70 in 10.0 mi WNW 20.7 mph - N/A   Partly Cloudy
7:35 AM 39.2 °F 31.2 °F 19.4 °F 45% 29.71 in 10.0 mi West 13.8 mph - N/A   Partly Cloudy
7:55 AM 39.2 °F 31.2 °F 19.4 °F 45% 29.71 in 10.0 mi West 13.8 mph 20.7 mph N/A   Mostly Cloudy
8:15 AM 39.2 °F 30.8 °F 19.4 °F 45% 29.70 in 10.0 mi West 15.0 mph - N/A   Overcast
8:35 AM 41.0 °F 32.8 °F 21.2 °F 45% 29.68 in 10.0 mi West 16.1 mph - N/A   Overcast
8:55 AM 41.0 °F 31.9 °F 21.2 °F 45% 29.69 in 10.0 mi West 19.6 mph 23.0 mph N/A   Overcast
9:15 AM 41.0 °F 31.6 °F 19.4 °F 42% 29.69 in 10.0 mi West 20.7 mph 25.3 mph N/A   Overcast
9:35 AM 41.0 °F 32.2 °F 19.4 °F 42% 29.69 in 10.0 mi West 18.4 mph - N/A   Overcast
9:55 AM 42.8 °F 34.0 °F 19.4 °F 39% 29.68 in 10.0 mi West 20.7 mph 27.6 mph N/A   Mostly Cloudy
10:15 AM 42.8 °F 33.1 °F 19.4 °F 39% 29.68 in 10.0 mi West 25.3 mph - N/A   Partly Cloudy
10:35 AM 44.6 °F 35.5 °F 19.4 °F 37% 29.66 in 10.0 mi West 25.3 mph 29.9 mph N/A   Clear
10:55 AM 42.8 °F 33.3 °F 17.6 °F 36% 29.67 in 10.0 mi West 24.2 mph 33.4 mph N/A   Clear
11:15 AM 44.6 °F 35.5 °F 17.6 °F 34% 29.65 in 10.0 mi WSW 25.3 mph 31.1 mph N/A   Clear
11:35 AM 44.6 °F 35.1 °F 17.6 °F 34% 29.64 in 10.0 mi WSW 27.6 mph 33.4 mph N/A   Clear
11:55 AM 44.6 °F 36.1 °F 17.6 °F 34% 29.63 in 10.0 mi West 21.9 mph 32.2 mph N/A   Clear
12:15 PM 46.4 °F 38.1 °F 17.6 °F 32% 29.61 in 10.0 mi WSW 24.2 mph 31.1 mph N/A   Clear
12:35 PM 46.4 °F 38.1 °F 15.8 °F 29% 29.59 in 10.0 mi WSW 24.2 mph 31.1 mph N/A   Clear
12:55 PM 48.2 °F - 17.6 °F 30% 29.58 in 10.0 mi West 29.9 mph 35.7 mph N/A   Clear
1:15 PM 48.2 °F - 15.8 °F 27% 29.58 in 10.0 mi WSW 24.2 mph 34.5 mph N/A   Partly Cloudy
1:35 PM 48.2 °F - 15.8 °F 27% 29.57 in 10.0 mi West 31.1 mph 40.3 mph N/A   Mostly Cloudy
1:55 PM 44.6 °F 34.7 °F 14.0 °F 29% 29.58 in 9.0 mi West 29.9 mph 39.1 mph N/A   Mostly Cloudy
2:15 PM 46.4 °F 37.4 °F 14.0 °F 27% 29.58 in 10.0 mi WSW 28.8 mph 38.0 mph N/A   Mostly Cloudy
2:35 PM 46.4 °F 36.4 °F 15.8 °F 29% 29.58 in 4.0 mi West 35.7 mph 40.3 mph N/A   Mostly Cloudy
2:55 PM 44.6 °F 34.7 °F 14.0 °F 29% 29.59 in 9.0 mi West 29.9 mph 40.3 mph N/A   Scattered Clouds
3:15 PM 44.6 °F 34.4 °F 12.2 °F 27% 29.59 in 9.0 mi West 32.2 mph 38.0 mph N/A   Partly Cloudy
3:35 PM 44.6 °F 35.1 °F 10.4 °F 25% 29.61 in 10.0 mi West 27.6 mph 40.3 mph N/A   Clear
3:55 PM 44.6 °F 35.1 °F 12.2 °F 27% 29.62 in 10.0 mi West 27.6 mph 38.0 mph N/A   Partly Cloudy
4:15 PM 42.8 °F 32.5 °F 10.4 °F 27% 29.62 in 7.0 mi West 28.8 mph 38.0 mph N/A   Partly Cloudy
4:35 PM 41.0 °F 29.8 °F 8.6 °F 26% 29.63 in 10.0 mi West 29.9 mph 38.0 mph N/A   Clear
4:55 PM 39.2 °F 28.5 °F 6.8 °F 26% 29.64 in 10.0 mi West 24.2 mph 33.4 mph N/A   Clear
5:15 PM 39.2 °F 28.5 °F 3.2 °F 22% 29.65 in 10.0 mi WNW 24.2 mph 32.2 mph N/A   Clear
5:35 PM 33.8 °F 21.0 °F 21.2 °F 60% 29.69 in 10.0 mi North 25.3 mph 35.7 mph N/A   Partly Cloudy
5:55 PM 30.2 °F 16.8 °F 19.4 °F 64% 29.71 in 10.0 mi North 23.0 mph 29.9 mph N/A   Mostly Cloudy
6:15 PM 28.4 °F 16.2 °F 19.4 °F 69% 29.73 in 10.0 mi North 17.3 mph 25.3 mph N/A   Mostly Cloudy
6:35 PM 28.4 °F 15.4 °F 21.2 °F 74% 29.74 in 10.0 mi North 19.6 mph 27.6 mph N/A   Overcast
6:55 PM 30.2 °F 17.4 °F 23.0 °F 75% 29.76 in 10.0 mi North 20.7 mph - N/A   Mostly Cloudy
7:15 PM 28.4 °F 13.3 °F 21.2 °F 74% 29.77 in 10.0 mi North 27.6 mph - N/A   Overcast
7:35 PM 30.2 °F 16.2 °F 21.2 °F 69% 29.79 in 10.0 mi North 25.3 mph 32.2 mph N/A   Overcast
7:55 PM 28.4 °F 15.1 °F 23.0 °F 80% 29.80 in 6.0 mi North 20.7 mph - N/A   Mostly Cloudy
8:15 PM 28.4 °F 14.7 °F 24.8 °F 86% 29.82 in 4.0 mi North 21.9 mph 25.3 mph N/A   Overcast
8:35 PM 28.4 °F 15.4 °F 21.2 °F 74% 29.83 in 5.0 mi North 19.6 mph 26.5 mph N/A   Overcast
8:55 PM 26.6 °F 13.1 °F 21.2 °F 80% 29.84 in 8.0 mi North 19.6 mph - N/A   Overcast
9:15 PM 26.6 °F 13.1 °F 21.2 °F 80% 29.85 in 10.0 mi North 19.6 mph 23.0 mph N/A   Overcast
9:35 PM 26.6 °F 14.7 °F 19.4 °F 74% 29.85 in 10.0 mi North 15.0 mph - N/A   Overcast
9:55 PM 26.6 °F 15.2 °F 19.4 °F 74% 29.86 in 10.0 mi NNW 13.8 mph - N/A   Overcast
10:15 PM 26.6 °F 16.2 °F 19.4 °F 74% 29.86 in 10.0 mi NNW 11.5 mph - N/A   Mostly Cloudy
10:35 PM 26.6 °F 16.2 °F 19.4 °F 74% 29.88 in 10.0 mi NW 11.5 mph - N/A   Mostly Cloudy
11:35 PM 24.8 °F 12.4 °F 19.4 °F 80% 29.90 in 10.0 mi WNW 15.0 mph - N/A   Clear
11:55 PM 24.8 °F 12.4 °F 19.4 °F 80% 29.91 in 10.0 mi WNW 15.0 mph - N/A   Clear